TimeCST,TemperatureF,Dew PointF,Humidity,Sea Level PressureIn,VisibilityMPH,Wind Direction,Wind SpeedMPH,Gust SpeedMPH,PrecipitationIn,Events,Conditions,WindDirDegrees,DateUTC
12:53 AM,28.0,24.1,85,30.38,10.0,Calm,Calm,-,N/A,,Clear,0,2013-02-02 06:53:00
1:53 AM,28.0,24.1,85,30.37,10.0,Calm,Calm,-,N/A,,Clear,0,2013-02-02 07:53:00
2:53 AM,28.0,23.0,81,30.37,10.0,Calm,Calm,-,N/A,,Clear,0,2013-02-02 08:53:00
3:53 AM,27.0,23.0,85,30.35,10.0,Calm,Calm,-,N/A,,Clear,0,2013-02-02 09:53:00
4:53 AM,27.0,23.0,85,30.35,10.0,Calm,Calm,-,N/A,,Clear,0,2013-02-02 10:53:00
5:53 AM,26.1,21.9,84,30.38,10.0,Calm,Calm,-,N/A,,Clear,0,2013-02-02 11:53:00
6:53 AM,26.1,23.0,88,30.37,10.0,Calm,Calm,-,N/A,,Clear,0,2013-02-02 12:53:00
7:53 AM,32.0,25.0,75,30.37,10.0,Calm,Calm,-,N/A,,Clear,0,2013-02-02 13:53:00
8:53 AM,41.0,19.0,41,30.37,10.0,South,5.8,-,N/A,,Clear,170,2013-02-02 14:53:00
9:53 AM,46.0,17.1,31,30.35,10.0,SSE,8.1,-,N/A,,Clear,160,2013-02-02 15:53:00
10:53 AM,51.1,17.1,26,30.33,10.0,WSW,5.8,-,N/A,,Clear,240,2013-02-02 16:53:00
11:53 AM,55.0,18.0,23,30.28,10.0,SW,9.2,-,N/A,,Clear,220,2013-02-02 17:53:00
12:53 PM,57.9,19.9,23,30.23,10.0,SSW,8.1,-,N/A,,Clear,210,2013-02-02 18:53:00
1:53 PM,61.0,21.0,21,30.21,10.0,SW,9.2,-,N/A,,Clear,230,2013-02-02 19:53:00
2:53 PM,62.1,21.0,21,30.19,10.0,SW,9.2,-,N/A,,Clear,220,2013-02-02 20:53:00
3:53 PM,63.0,21.9,21,30.18,10.0,SW,11.5,-,N/A,,Clear,220,2013-02-02 21:53:00
4:53 PM,60.1,25.0,26,30.17,10.0,SSW,5.8,-,N/A,,Clear,210,2013-02-02 22:53:00
5:53 PM,55.9,28.9,36,30.17,10.0,Calm,Calm,-,N/A,,Overcast,0,2013-02-02 23:53:00
6:53 PM,52.0,35.1,53,30.17,10.0,Calm,Calm,-,N/A,,Mostly Cloudy,0,2013-02-03 00:53:00
7:53 PM,53.1,30.9,43,30.17,10.0,SSW,6.9,-,N/A,,Overcast,210,2013-02-03 01:53:00
8:53 PM,52.0,36.0,54,30.19,7.0,Calm,Calm,-,0.00,,Overcast,0,2013-02-03 02:53:00
9:38 PM,51.8,44.6,76,30.20,2.0,West,3.5,-,0.04,Rain,Light Rain,270,2013-02-03 03:38:00
9:48 PM,51.8,44.6,76,30.20,8.0,West,3.5,-,0.04,Rain,Light Rain,280,2013-02-03 03:48:00
9:53 PM,51.1,44.1,77,30.19,9.0,Calm,Calm,-,0.04,,Overcast,0,2013-02-03 03:53:00
10:53 PM,48.9,46.9,93,30.20,6.0,Calm,Calm,-,0.01,,Overcast,0,2013-02-03 04:53:00
11:53 PM,48.0,46.0,93,30.20,4.0,WSW,4.6,-,0.01,,Overcast,240,2013-02-03 05:53:00